Home > Weather > Cape Dorset > Past weeks

Flag for Canada Weather for the Past 2 Weeks in Cape Dorset, Nunavut, Canada

Now
21 °F

Clear.


Feels Like: 12 °F
Forecast: 10 / 26 °F
Wind: 8 mph from West

Location: Cape Dorset

Current Time: Apr 30, 2016 at 12:21:05 AM

Latest Report: Apr 29, 2016 at 11:00 PM


Visibility: 9 mi

Pressure: 30.30 "Hg

Humidity: 80%

Dew Point: 16 °F

Location of Cape DorsetLocation

Historic Weather in Cape Dorset — Graph

°F

Cape Dorset Temperature Yesterday

Maximum temperature yesterday: 32 °F (at 12:00 AM)
Minimum temperature yesterday: 23 °F (at 10:00 PM)
Average temperature yesterday: 31 °F

High & Low Weather Summary for the Past Weeks

 TemperatureHumidityPressure
High39 °F (Apr 28, 5:00 PM)100% (Apr 16, 6:00 AM)30.40 "Hg (Apr 16, 6:00 AM)
Low-2 °F (Apr 25, 3:00 AM)64% (Apr 29, 8:00 PM)28.89 "Hg (Apr 20, 6:00 PM)
Average15 °F85%29.98 "Hg
* Reported Apr 14 10:00 PM — Apr 29 10:00 PM, Cape Dorset, Weather by CustomWeather, © 2016

Note: Actual official high and low records may vary slightly from our data, if they occured in-between our weather recording intervals... More about our weather records

Advertising

Cape Dorset Weather History for the Previous 24 Hours

Scroll right to see more
 ConditionsComfort  
Time TempWeatherWind HumidityBarometerVisibility
10:00 PM
Fri, Apr 29
23 °FSunny.6 mph74%30.30 "Hg9 mi
9:00 PM27 °FSunny.7 mph74%30.29 "Hg9 mi
8:00 PM28 °FSunny.2 mph64%30.29 "Hg9 mi
7:00 PM30 °FScattered clouds.6 mph75%30.29 "Hg9 mi
6:00 PM32 °FSunny.6 mph75%30.28 "Hg9 mi
5:00 PM32 °FBroken clouds.8 mph87%30.27 "Hg15 mi
4:00 PM32 °FBroken clouds.7 mph93%30.27 "Hg15 mi
3:00 PM32 °FPartly sunny.3 mph93%30.27 "Hg15 mi
2:00 PM32 °FLow clouds.5 mph87%30.28 "Hg15 mi
1:00 PM32 °FLow clouds.7 mph93%30.27 "Hg15 mi
12:00 PM32 °FPartly sunny.5 mph93%30.27 "Hg15 mi
11:00 AM30 °FLow clouds.6 mph100%30.28 "Hg15 mi
10:00 AM30 °FBroken clouds.7 mph93%30.28 "Hg15 mi
9:00 AM32 °FPartly sunny.5 mph87%30.27 "Hg15 mi
8:00 AM32 °FBroken clouds.3 mph87%30.27 "Hg15 mi
7:00 AM30 °FScattered clouds.7 mph93%30.27 "Hg15 mi
6:53 AM30 °FScattered clouds.7 mph100%30.27 "Hg9 mi
6:00 AM30 °FLow clouds.7 mph100%30.27 "Hg9 mi
5:00 AM30 °FLow clouds.7 mph100%30.27 "Hg9 mi
4:00 AM30 °FLow clouds.5 mph93%30.27 "Hg9 mi
3:00 AM30 °FPassing clouds.No wind100%30.26 "Hg9 mi
2:00 AM32 °FClear.8 mph93%30.26 "Hg9 mi
1:00 AM32 °FClear.6 mph93%30.25 "Hg9 mi
12:00 AM32 °FClear.7 mph93%30.25 "Hg9 mi
Weather by CustomWeather, © 2016

See weather overviewHow to use our weather pages